#timestamp,LO_Frequency,Hit,StdDev 
1512669615.5,286047006.5,N
1512669635.3,286047008.0,Y
1512669655.2,286047002.9,P
1512669675.0,286047006.0,P
1512669675.9,286047006.0,P
1512669695.8,286047005.6,Y
1512669715.6,286047000.4,P
1512669735.4,286047000.3,N
1512669755.2,286047001.5,N
1512669775.1,286047006.0,N
1512669776.0,286047006.0,N
1512669795.8,286047002.2,N
1512669815.6,286047003.5,N
1512669835.5,286046994.9,N
1512669855.3,286046998.7,N
1512669875.1,286046996.8,N
1512669895.9,286046995.7,N
1512669915.7,286046998.6,N
1512669935.5,286046999.7,N
1512669955.4,286047000.9,N
1512669975.2,286047003.7,N
1512669995.0,286047005.8,N
1512669995.9,286047005.8,N
1512670015.8,286047000.1,N
1512670035.6,286046998.2,N
1512670055.4,286046995.6,N
1512670075.2,286046993.9,N
1512670095.1,286046997.1,N
1512670096.0,286046997.1,N
1512670115.8,286047002.2,N
1512670135.6,286047004.1,N
1512670155.5,286047001.1,N
1512670175.3,286046996.9,N
1512670195.1,286046997.3,N
1512670215.9,286046998.8,N
1512670235.7,286046998.3,N
1512670255.5,286047000.5,N
1512670275.4,286046998.2,N
1512670295.2,286047000.8,N
1512670315.0,286046999.8,N
1512670315.9,286046999.8,N
1512670335.8,286047002.5,N
1512670355.6,286047005.3,N
1512670375.4,286047006.0,N
1512670395.2,286047004.1,N
1512670415.1,286047005.9,N
1512670416.0,286047005.9,N
1512670435.8,286047001.9,N
1512670455.6,286047007.1,N
1512670475.5,286047006.1,N
1512670495.3,286047004.5,N
1512670515.1,286047004.5,N
1512670535.9,286047007.6,N
1512670555.7,286047007.0,N
1512670575.5,286047006.2,N
1512670595.4,286047008.8,N
1512670615.2,286047010.8,N
1512670635.0,286047004.0,N
1512670635.9,286047004.0,N
1512670655.8,286046996.9,N
1512670675.6,286046995.6,N
1512670695.4,286046997.4,N
1512670715.3,286046997.5,N
1512670735.1,286047001.1,N
1512670736.0,286047001.1,N
1512670755.8,286047000.5,N
1512670775.6,286047003.6,N
1512670795.5,286047005.4,N
1512670815.3,286047002.5,N
1512670835.1,286046999.7,N
1512670855.9,286046997.4,N
1512670875.7,286047000.5,N
1512670895.5,286047002.7,N
1512670915.4,286047002.3,N
1512670935.8,286047003.5,N
1512670955.6,286047005.9,N
1512670975.4,286047002.9,N
1512670995.3,286047003.6,N
1512671015.1,286047003.9,N
1512671016.0,286047003.9,N
1512671035.8,286047008.6,N
1512671055.7,286047006.4,N
1512671075.5,286047000.9,N
1512671095.3,286047002.7,N
1512671115.1,286047000.2,N
1512671135.9,286046998.7,N
1512671155.7,286046998.5,N
1512671175.5,286046997.2,N
1512671195.4,286046997.4,N
1512671215.2,286046997.5,N
1512671235.0,286046997.3,N
1512671235.9,286046997.3,N
1512671255.8,286046995.5,N
1512671275.6,286046998.7,N
1512671295.4,286047004.3,N
1512671315.3,286047003.2,N
1512671335.1,286047000.5,N
1512671336.0,286047000.5,N
1512671355.8,286047001.5,N
1512671375.7,286047005.1,N
1512671395.5,286047006.7,N
1512671415.3,286047008.4,N
1512671435.1,286047005.5,N
1512671455.9,286047006.0,N
1512671475.7,286047005.5,N
1512671495.5,286047002.7,N
1512671515.4,286047002.1,N
1512671535.2,286046995.7,N
1512671555.0,286046993.4,N
1512671555.9,286046993.4,N
1512671575.8,286046997.5,N
1512671595.6,286046997.6,N
1512671615.4,286046996.3,N
1512671635.3,286046988.9,N
1512671655.1,286046992.9,N
1512671656.0,286046992.9,N
1512671675.8,286046993.8,N
1512671695.7,286046996.4,N
1512671715.5,286046990.7,N
1512671735.3,286046989.3,N
1512671755.1,286046989.8,N
1512671775.9,286046987.8,N
1512671795.7,286046981.0,Y
1512671815.6,286046985.2,P
1512671835.4,286046980.7,P
1512671855.2,286046979.3,N
1512671875.0,286046983.4,N
1512671875.9,286046983.4,N
1512671895.8,286046985.3,N
1512671915.6,286046987.6,N
1512671935.4,286046991.0,N
1512671955.3,286046990.9,N
1512671975.1,286046994.8,N
1512671976.0,286046994.8,N
1512671995.8,286046991.5,N
1512672015.7,286046990.7,N
1512672035.5,286046987.4,N
1512672055.3,286046989.1,N
1512672075.2,286046985.8,N
1512672095.9,286046985.1,N
1512672115.7,286046982.4,Y
1512672135.6,286046993.9,P
1512672155.4,286046997.7,N
1512672175.2,286047000.8,N
1512672195.0,286047002.2,N
1512672196.0,286047002.2,N
1512672215.8,286046998.5,N
1512672235.6,286046998.4,N
1512672255.4,286047002.2,N
1512672275.3,286047000.1,N
1512672295.1,286046998.7,N
1512672315.8,286047000.3,N
1512672335.7,286046996.2,N
1512672355.5,286046992.6,N
1512672375.3,286046994.2,N
1512672395.2,286046995.7,N
1512672415.9,286047001.2,N
1512672435.7,286047000.7,N
1512672455.6,286047002.4,N
1512672475.4,286047003.1,N
1512672495.2,286047000.0,N
1512672515.0,286047002.2,N
1512672516.0,286047002.2,N
1512672535.8,286046998.7,N
1512672555.6,286047002.0,N
1512672575.4,286047001.1,N
1512672595.3,286046996.8,N
1512672615.1,286046999.1,N
1512672635.8,286047000.5,N
1512672655.7,286047005.3,N
1512672675.5,286047006.3,N
1512672695.3,286047008.0,N
1512672715.2,286047007.8,N
1512672735.9,286047007.7,N
1512672755.7,286047007.0,N
1512672775.6,286047006.4,N
1512672795.4,286047002.9,N
1512672815.2,286047003.1,N
1512672835.0,286047007.6,N
1512672836.0,286047007.6,N
1512672855.8,286047006.7,N
1512672875.6,286047005.2,N
1512672895.4,286047003.0,N
1512672915.3,286047000.4,N
1512672935.1,286046995.7,N
1512672955.8,286046994.5,N
1512672975.7,286046993.0,N
1512672995.5,286046989.3,N
1512673015.3,286046981.4,Y
1512673035.2,286046973.6,P
1512673055.0,286046978.0,N
1512673055.9,286046978.0,N
1512673075.7,286046979.9,N
1512673095.6,286046974.4,N
1512673115.4,286046980.2,N
1512673135.2,286046979.2,N
1512673155.1,286046983.3,N
1512673156.0,286046983.3,N
1512673175.8,286046982.9,N
1512673195.6,286046987.9,N
